Content
SEND FEEDBACK

Daily
Averages
Monthly
Summary
United States of America

HYANNIS, MASSACHUSETTS


Home > North America > United States > Massachusetts
Elevation: 2 feet     Latitude: 41 40N     Longitude: 070 18W

WEATHER
 
SELECT A DAY
Number of Records: 212,285;   Date Range: 1/1/95 - 12/25/14
 
SHARE

PRINT THIS DATA

[ ← Previous Day ]
WEATHER ALMANAC - MARCH 12, 2013
[ Next Day → ]
[ °C ]   °F
Weather ElementAverageHighLow
Temperature48.9 °F52 °F (10:56 pm)44.1 °F (1:56 am)
Dewpoint46.1 °F50 °F (10:56 pm)42.1 °F (1:56 am)
Humidity90.2 %96 % (9:56 pm)83 % (10:56 am)
Barometer29.97 in30.19 in (1:56 am)29.75 in (11:56 pm)
Wind Speed10.5 mph15 mph (11:09 pm)
Wind Gust25.3 mph (4:56 pm)
Weather ElementAverage
Visibility7.8 mi
Wind DirectionSSE (155.4 °)

Weather ElementTotal
Precipitation0.76 in
Heating Degree Days17 (Base 65)
Averaged from 26 records on March 12, 2013
WEATHER CONDITIONS BREAKOUT
WIND DIRECTION BREAKOUT
WEATHER BY HOUR - MARCH 12, 2013
[ °C ]   °F
Local TimeTemperatureDewpointHumidityBarometerVisibilityWind DirectionWind SpeedGust SpeedPrecipitationEventsConditions
1:56 AM44.1 °F42.1 °F93 %30.19 in10.0 miSouth (180°)6.9 mphOvercast
2:39 AM44.6 °F42.8 °F93 %30.16 in10.0 miSSE (160°)4.6 mphScattered Clouds
2:56 AM45.0 °F43.0 °F93 %30.16 in10.0 miSouth (170°)5.8 mphClear
3:56 AM45.0 °F43.0 °F93 %30.13 in10.0 miSouth (170°)6.9 mphPartly Cloudy
4:56 AM45.0 °F43.0 °F93 %30.10 in10.0 miSSE (160°)8.1 mphClear
5:56 AM46.0 °F43.0 °F89 %30.11 in10.0 miSSE (160°)6.9 mphClear
6:56 AM46.0 °F43.0 °F89 %30.09 in10.0 miSSE (160°)9.2 mphClear
8:56 AM46.9 °F45.0 °F93 %30.09 in9.0 miSSE (160°)11.5 mph18.4 mphClear
9:56 AM48.0 °F45.0 °F89 %30.09 in10.0 miSSE (150°)10.4 mph17.3 mphOvercast
10:56 AM50.0 °F45.0 °F83 %30.06 in10.0 miSSE (150°)11.5 mph23.0 mphPartly Cloudy
11:56 AM51.1 °F46.0 °F83 %30.04 in10.0 miSSE (150°)13.8 mph21.9 mphMostly Cloudy
12:56 PM50.0 °F45.0 °F83 %30.02 in10.0 miVariable6.9 mph17.3 mphOvercast
1:56 PM50.0 °F46.0 °F86 %30.00 in10.0 miSSE (160°)11.5 mph19.6 mphOvercast
2:56 PM51.1 °F46.9 °F86 %29.96 in8.0 miSSE (150°)13.8 mph23.0 mphOvercast
3:56 PM51.1 °F46.9 °F86 %29.93 in8.0 miSSE (150°)12.7 mph21.9 mphOvercast
4:56 PM50.0 °F46.9 °F89 %29.91 in7.0 miSSE (150°)9.2 mph25.3 mph0.00 inRainLight Rain
5:56 PM50.0 °F46.9 °F89 %29.88 in7.0 miSSE (160°)11.5 mph23.0 mph0.00 inOvercast
6:56 PM51.1 °F48.0 °F89 %29.85 in9.0 miSSE (150°)11.5 mph21.9 mph0.00 inOvercast
7:56 PM50.0 °F46.9 °F89 %29.84 in5.0 miSSE (160°)11.5 mph20.7 mph0.02 inRainLight Rain
8:56 PM50.0 °F48.0 °F93 %29.83 in3.0 miSSE (160°)12.7 mph18.4 mph0.09 inRainRain
9:32 PM50.0 °F48.2 °F94 %29.80 in2.5 miSSE (160°)12.7 mph21.9 mph0.13 inRainHeavy Rain
9:40 PM50.0 °F48.2 °F94 %29.79 in3.0 miSSE (160°)12.7 mph21.9 mph0.17 inRainRain
9:56 PM50.0 °F48.9 °F96 %29.79 in3.0 miSouth (170°)10.4 mph25.3 mph0.19 inRainRain
10:56 PM52.0 °F50.0 °F93 %29.77 in5.0 miSouth (180°)13.8 mph24.2 mph0.11 inRainLight Rain
11:09 PM51.8 °F50.0 °F94 %29.76 in6.0 miSouth (180°)15.0 mph25.3 mph0.00 inRainLight Rain
11:56 PM52.0 °F50.0 °F93 %29.75 in6.0 miSouth (180°)11.5 mph25.3 mph0.05 inRainLight Rain
Hourly data recorded from KHYA, located miles away from Hyannis, Massachusetts







STORIES FROM OUR PARTNERS